Regional Weather Roundup
Issued by NWS

Home | Current Version | Previous Version | Text Only | Print | Product List | Glossary On
Versions: 1 2 3 4 5 6 7 8 9 10 11 12 13 14 15 16 17 18 19 20 21 22 23 24 25 26 27 28 29 30 31 32 33 34 35 36 37 38 39 40 41 42 43 44 45 46 47 48 49 50
000
ASUS43 KTOP 010859
RWRKS

WEATHER ROUNDUP FOR KANSAS
NATIONAL WEATHER SERVICE GOODLAND KS
400 AM CDT TUE SEP 01 2015

NOTE:  "FAIR" INDICATES FEW OR NO CLOUDS BELOW 12,000 FEET WITH NO
SIGNIFICANT WEATHER AND/OR OBSTRUCTIONS TO VISIBILITY.

KSZ001>006-013>018-027>032-041>047-011000-
NORTHWEST KANSAS

CITY           SKY/WX    TMP DP  RH WIND       PRES   REMARKS
GOODLAND       MOCLDY    64  61  90 W7        30.00R
HAYS           PTCLDY    75  55  50 S16       29.95F
HILL CITY      MOCLDY    73  54  51 SW8       29.96R
RUSSELL        CLEAR     74  61  63 S15       29.94F
$$

KSZ061>065-074>080-084>089-011000-
SOUTHWEST KANSAS

CITY           SKY/WX    TMP DP  RH WIND       PRES   REMARKS
DODGE CITY     CLEAR     69  57  65 S14       29.98F
ELKHART          N/A     70  56  61 SW6         N/A
GARDEN CITY    PTCLDY    65  55  70 SE12      29.95F
GREAT BEND     CLEAR     73  61  64 S16       29.97S
LIBERAL        CLEAR     68  52  56 S10       29.99S
$$

KSZ066>073-081>083-090>101-011000-
SOUTHEAST KANSAS

CITY           SKY/WX    TMP DP  RH WIND       PRES   REMARKS
CHANUTE        CLEAR     71  68  90 S6        30.01F
COFFEYVILLE    CLEAR     70  68  93 S5        30.01S
HUTCHINSON     CLEAR     73  61  65 S5        29.99R
NEWTON         CLEAR     72  61  68 S10       30.02R
PARSONS        CLEAR     73  69  87 S5        30.02S
WICHITA INTL   PTCLDY    70  63  78 S9        30.00R
WICHITA JABRA  CLEAR     71  64  78 S10       30.00R
WINFIELD       CLEAR     73  64  73 S12       30.01S
$$

KSZ007>012-019>026-033>040-048>060-102>105-011000-
NORTHEAST KANSAS

CITY           SKY/WX    TMP DP  RH WIND       PRES   REMARKS
CONCORDIA      CLEAR     73  62  68 S16       29.94R
EMPORIA        CLEAR     72  67  84 S14       29.99S
LAWRENCE       CLEAR     72  69  90 CALM      29.99S
MANHATTAN      CLEAR     71  66  84 SW5       29.96R
OLATHE IND     CLEAR     72  69  90 S8        30.01S
OLATHE EXE     CLEAR     71  68  90 S8        30.01R
SALINA         CLEAR     74  62  66 S13       29.95S
TOPEKA BILLARD CLEAR     74  70  87 SE3       29.98R
TOPEKA FORBES  CLEAR     75  69  81 S9        29.98S
$$


USA.gov is the U.S. government's official web portal to all federal, state and local government web resources and services.